Weather History for KVJI - April, 2014

Change the Weather History Date:

Thursday, April 10, 2014

  Actual Average (KTRI) Record (KTRI)
Temperature  
Mean Temperature 54 °F 54 °F  
Max Temperature 71 °F 67 °F 89 °F (1995)
Min Temperature 36 °F 41 °F 22 °F (1985)
Degree Days  
Heating Degree Days 12 12  
Month to date heating degree days 128  
Since 1 July heating degree days 4078  
Cooling Degree Days 0 0  
Month to date cooling degree days 0  
Year to date cooling degree days 1  
Growing Degree Days 4 (Base 50)    
Moisture  
Dew Point 31 °F    
Average Humidity 47    
Maximum Humidity 78    
Minimum Humidity 19    
Precipitation  
Precipitation 0.00 in 0.11 in 2.18 in (2003)
Month to date precipitation 1.09  
Year to date precipitation 11.35  
Snow  
Snow 0.00 in 0.10 in - ()
Month to date snowfall 0.5  
Since 1 July snowfall 12.7  
Snow Depth -    
Sea Level Pressure  
Sea Level Pressure 30.16 in    
Wind  
Wind Speed 3 mph (West)    
Max Wind Speed 16 mph    
Max Gust Speed 22 mph    
Visibility 10 miles    
Events      
T = Trace of Precipitation, MM = Missing Value Source: NWS Daily Summary

Daily Weather History Graph

Daily Weather History Graph

Search for Another Location

Airport or City:

Trip Planner

Search our weather history database for the weather conditions in past years. The results will help you decide how hot, cold, wet, or windy it might be!

Date:

Astronomy

Apr. 10, 2014 Rise Set
Actual Time 7:01 AM EDT 7:58 PM EDT
Civil Twilight 6:34 AM EDT 8:24 PM EDT
Nautical Twilight 6:03 AM EDT 8:56 PM EDT
Astronomical Twilight 5:31 AM EDT 9:28 PM EDT
Moon 3:47 PM EDT (4/10) 4:16 AM EDT (4/10)
Length of Visible Light 13h 49m
Length of Day
12h 57m
Waxing Gibbous, 79% of the Moon is Illuminated
Apr 10
Waxing Gibbous
Apr 15
Full
Apr 22
Last Quarter
Apr 29
New
May 6
First Quarter

Hourly Weather History & Observations

Time (EDT) Temp. Windchill Dew Point Humidity Pressure Visibility Wind Dir Wind Speed Gust Speed Precip Events Conditions
12:15 AM 43.7 °F - 30.6 °F 60% 30.14 in 10.0 mi Calm Calm - N/A   Clear
12:35 AM 43.9 °F - 30.9 °F 60% 30.14 in 10.0 mi Calm Calm - N/A   Clear
12:55 AM 43.0 °F - 30.6 °F 62% 30.14 in 10.0 mi Calm Calm - N/A   Clear
1:15 AM 41.2 °F - 31.1 °F 67% 30.13 in 10.0 mi Calm Calm - N/A   Clear
1:35 AM 41.7 °F - 30.9 °F 66% 30.14 in 10.0 mi Calm Calm - N/A   Clear
1:55 AM 41.4 °F - 31.1 °F 67% 30.14 in 10.0 mi Calm Calm - N/A   Clear
2:15 AM 41.0 °F - 30.9 °F 67% 30.14 in 10.0 mi Calm Calm - N/A   Clear
2:35 AM 39.6 °F - 30.7 °F 71% 30.15 in 10.0 mi Calm Calm - N/A   Clear
2:55 AM 39.7 °F - 30.7 °F 70% 30.15 in 10.0 mi Calm Calm - N/A   Clear
3:15 AM 38.8 °F - 31.1 °F 74% 30.15 in 10.0 mi Calm Calm - N/A   Clear
3:35 AM 38.3 °F - 30.9 °F 75% 30.16 in 10.0 mi Calm Calm - N/A   Clear
3:55 AM 39.2 °F - 30.9 °F 72% 30.16 in 10.0 mi Calm Calm - N/A   Clear
4:15 AM 37.4 °F - 30.7 °F 77% 30.16 in 10.0 mi Calm Calm - N/A   Clear
4:35 AM 37.9 °F - 30.2 °F 74% 30.16 in 10.0 mi Calm Calm - N/A   Clear
4:55 AM 37.8 °F - 30.2 °F 74% 30.16 in 10.0 mi Calm Calm - N/A   Clear
5:15 AM 38.1 °F - 30.0 °F 73% 30.17 in 10.0 mi Calm Calm - N/A   Clear
5:35 AM 37.9 °F - 30.6 °F 75% 30.17 in 10.0 mi Calm Calm - N/A   Clear
5:55 AM 37.6 °F - 30.6 °F 76% 30.18 in 10.0 mi Calm Calm - N/A   Clear
6:15 AM 38.1 °F - 30.4 °F 74% 30.18 in 10.0 mi Calm Calm - N/A   Clear
6:35 AM 37.0 °F - 30.6 °F 77% 30.19 in 10.0 mi Calm Calm - N/A   Clear
6:55 AM 36.9 °F - 30.6 °F 78% 30.19 in 10.0 mi Calm Calm - N/A   Clear
7:15 AM 37.8 °F - 30.2 °F 74% 30.20 in 10.0 mi Calm Calm - N/A   Clear
7:35 AM 37.2 °F 33.6 °F 30.4 °F 76% 30.22 in 10.0 mi East 4.6 mph - N/A   Clear
7:55 AM 40.3 °F 38.2 °F 30.2 °F 67% 30.23 in 10.0 mi East 3.5 mph - N/A   Clear
8:15 AM 42.1 °F - 31.8 °F 67% 30.23 in 10.0 mi Calm Calm - N/A   Clear
8:35 AM 44.1 °F 40.8 °F 32.2 °F 63% 30.24 in 10.0 mi East 5.8 mph - N/A   Clear
8:55 AM 45.9 °F 42.9 °F 32.0 °F 58% 30.24 in 10.0 mi East 5.8 mph - N/A   Clear
9:15 AM 47.8 °F - 32.5 °F 55% 30.24 in 10.0 mi Calm Calm - N/A   Clear
9:35 AM 50.9 °F - 33.8 °F 52% 30.25 in 10.0 mi Calm Calm - N/A   Clear
9:55 AM 53.8 °F - 32.2 °F 44% 30.25 in 10.0 mi Calm Calm - N/A   Clear
10:15 AM 55.4 °F - 32.5 °F 42% 30.25 in 10.0 mi WSW 5.8 mph - N/A   Clear
10:35 AM 57.7 °F - 33.3 °F 40% 30.25 in 10.0 mi WSW 8.1 mph - N/A   Clear
10:55 AM 59.2 °F - 33.1 °F 37% 30.24 in 10.0 mi West 11.5 mph 17.3 mph N/A   Clear
11:15 AM 59.5 °F - 31.8 °F 35% 30.24 in 10.0 mi West 10.4 mph 18.4 mph N/A   Clear
11:35 AM 60.3 °F - 31.8 °F 34% 30.24 in 10.0 mi West 11.5 mph 21.9 mph N/A   Clear
11:55 AM 60.8 °F - 30.2 °F 31% 30.23 in 10.0 mi West 15.0 mph 21.9 mph N/A   Clear
12:15 PM 62.2 °F - 30.4 °F 30% 30.22 in 10.0 mi West 15.0 mph 20.7 mph N/A   Clear
12:35 PM 62.4 °F - 31.3 °F 31% 30.21 in 10.0 mi West 11.5 mph 19.6 mph N/A   Clear
12:55 PM 63.3 °F - 31.1 °F 30% 30.20 in 10.0 mi West 10.4 mph 18.4 mph N/A   Clear
1:15 PM 64.6 °F - 29.3 °F 27% 30.19 in 10.0 mi West 13.8 mph 20.7 mph N/A   Clear
1:35 PM 64.6 °F - 29.8 °F 27% 30.18 in 10.0 mi WNW 12.7 mph 19.6 mph N/A   Clear
1:55 PM 66.0 °F - 28.9 °F 25% 30.17 in 10.0 mi West 10.4 mph 19.6 mph N/A   Clear
2:15 PM 66.2 °F - 28.8 °F 25% 30.17 in 10.0 mi West 13.8 mph 18.4 mph N/A   Clear
2:35 PM 67.1 °F - 30.7 °F 26% 30.16 in 10.0 mi SW 9.2 mph - N/A   Clear
3:15 PM 68.4 °F - 25.7 °F 20% 30.15 in 10.0 mi West 11.5 mph 19.6 mph N/A   Clear
3:35 PM 68.7 °F - 26.1 °F 20% 30.14 in 10.0 mi West 9.2 mph 21.9 mph N/A   Clear
3:55 PM 69.6 °F - 27.3 °F 21% 30.13 in 10.0 mi West 11.5 mph 19.6 mph N/A   Clear
4:15 PM 70.2 °F - 27.1 °F 20% 30.12 in 10.0 mi West 13.8 mph 19.6 mph N/A   Clear
4:35 PM 70.7 °F - 25.7 °F 19% 30.11 in 10.0 mi West 16.1 mph 19.6 mph N/A   Clear
4:55 PM 70.7 °F - 27.0 °F 20% 30.11 in 10.0 mi West 12.7 mph 21.9 mph N/A   Clear
5:15 PM 71.4 °F - 27.7 °F 20% 30.11 in 10.0 mi West 12.7 mph 16.1 mph N/A   Clear
5:35 PM 71.2 °F - 27.7 °F 20% 30.11 in 10.0 mi West 13.8 mph - N/A   Clear
5:55 PM 71.1 °F - 28.8 °F 21% 30.10 in 10.0 mi West 11.5 mph - N/A   Clear
6:15 PM 71.2 °F - 29.7 °F 21% 30.10 in 10.0 mi West 10.4 mph 16.1 mph N/A   Clear
6:35 PM 70.9 °F - 30.0 °F 22% 30.10 in 10.0 mi West 8.1 mph - N/A   Clear
6:55 PM 70.0 °F - 30.9 °F 24% 30.10 in 10.0 mi West 8.1 mph - N/A   Clear
7:15 PM 68.9 °F - 32.0 °F 25% 30.10 in 10.0 mi West 5.8 mph - N/A   Clear
7:35 PM 67.5 °F - 32.0 °F 27% 30.10 in 10.0 mi West 6.9 mph - N/A   Clear
7:55 PM 67.1 °F - 31.8 °F 27% 30.10 in 10.0 mi West 3.5 mph - N/A   Clear
8:15 PM 65.8 °F - 32.0 °F 28% 30.10 in 10.0 mi West 3.5 mph - N/A   Clear
8:35 PM 62.6 °F - 34.2 °F 35% 30.10 in 10.0 mi Calm Calm - N/A   Clear
8:55 PM 61.3 °F - 34.2 °F 36% 30.11 in 10.0 mi SE 3.5 mph - N/A   Clear
9:15 PM 58.3 °F - 36.0 °F 43% 30.11 in 10.0 mi Calm Calm - N/A   Clear
9:35 PM 57.7 °F - 36.3 °F 45% 30.13 in 10.0 mi Calm Calm - N/A   Clear
10:15 PM 54.9 °F - 37.6 °F 52% 30.15 in 10.0 mi Calm Calm - N/A   Clear
10:35 PM 56.3 °F - 36.7 °F 48% 30.15 in 10.0 mi Calm Calm - N/A   Clear
10:55 PM 53.4 °F - 37.0 °F 54% 30.15 in 10.0 mi Calm Calm - N/A   Clear
11:15 PM 53.1 °F - 37.4 °F 55% 30.16 in 10.0 mi Calm Calm - N/A   Clear
11:35 PM 55.6 °F - 36.1 °F 48% 30.16 in 10.0 mi Calm Calm - N/A   Clear
11:55 PM 53.1 °F - 37.4 °F 55% 30.16 in 10.0 mi Calm Calm - N/A   Clear